Location: ??????????
(44.2167°N, 135.5333°E)
Time: 14:12:04
(UTC+00:00)

ALOS 2 - Pass Details

Date: 15 June 2025
Orbit: 630 x 632 km, 97.9° (Epoch: 16 July)

Event Time Altitude Azimuth Distance (km) Brightness Sun altitude
Exits shadow 13:49:59 33° 104° (ESE) 1,076 3.5 -20.7°
Maximum altitude 13:51:05 38° 70° (ENE) 963 3.5 -20.7°
Drops below altitude 10° 13:55:10 10° 2° (N) 2,024 6.2 -20.9°
Sets 13:57:29 0° 355° (N) 2,937 7.5 -21.0°
